Regional Weather Roundup
Issued by NWS Sioux Falls, SD

Home | Current Version | Previous Version | Text Only | Print | Product List | Glossary On
Versions: 1 2 3 4 5 6 7 8 9 10 11 12 13 14 15 16 17 18 19 20 21 22 23 24 25 26 27 28 29 30 31 32 33 34 35 36 37 38 39 40 41 42 43 44 45 46 47 48 49 50
000
ASUS43 KFSD 031510
RWRFSD

WEATHER ROUNDUP FOR SE SOUTH DAKOTA/SW MINNESOTA/NW IOWA
NATIONAL WEATHER SERVICE SIOUX FALLS SD
1000 AM CDT SUN MAY 03 2015

NOTE: "FAIR" INDICATES FEW OR NO CLOUDS BELOW 12,000 FEET WITH NO
SIGNIFICANT WEATHER AND OR OBSTRUCTIONS TO VISIBILITY.


SDZ038>040-050-052>070-031600-
SOUTHEAST SOUTH DAKOTA

CITY           SKY/WX    TMP DP  RH WIND       PRES   REMARKS
BROOKINGS      SUNNY     68  55  64 N8        29.77S
CHAMBERLAIN    MOSUNNY   66  44  44 N22       29.78R
HURON          SUNNY     68  54  60 N20G29    29.75R
MADISON        FAIR      70  54  56 SW6       29.76R
MITCHELL       SUNNY     68  54  60 VRB3      29.75R
SIOUX FALLS    MOSUNNY   69  54  58 S7        29.75S
WINNER         FAIR      65  40  39 N20       29.81R
YANKTON        SUNNY     70  55  60 S7        29.72S
$$

MNZ071-072-080-081-089-090-097-098-031600-
SOUTHWEST MINNESOTA

CITY           SKY/WX    TMP DP  RH WIND       PRES   REMARKS
FAIRMONT       SUNNY     68  52  56 S8        29.79R
JACKSON        MOSUNNY   70  48  46 SW8       29.79R
LUVERNE        SUNNY     72  52  49 SW12      29.77S
MARSHALL       SUNNY     68  52  56 W6        29.76S
MONTEVIDEO     SUNNY     70  55  60 W5        29.77S
REDWOOD FALLS  SUNNY     68  54  60 SE7       29.76S
TRACY          MOSUNNY   72  55  55 SW7       29.76S
WINDOM         MOSUNNY   72  52  49 S5        29.77S
WORTHINGTON    MOSUNNY   70  52  52 S9        29.78R
$$

IAZ001>003-012>014-020>022-031-032-NEZ013-014-SDZ071-031600-
NORTHWEST IOWA

CITY           SKY/WX    TMP DP  RH WIND       PRES   REMARKS
CHEROKEE       SUNNY     70  57  63 SW10      29.76F
DENISON        MOSUNNY   70  61  73 S18G25    29.75S
ESTHERVILLE    MOSUNNY   67  53  61 S8        29.78R
LE MARS        SUNNY     72  55  56 S16G23    29.76S
ORANGE CITY    SUNNY     68  54  60 S17G23    29.76S
SHELDON        MOSUNNY   70  57  64 S8G15     29.76F
SIOUX CITY     SUNNY     72  55  55 S9        29.75S
SPENCER        MOSUNNY   71  53  52 SW12      29.78S
STORM LAKE     MOSUNNY   72  55  56 S20       29.78F
$$

ABBREVIATIONS USED IN REMARKS
   TC - TEMPERATURE IN CELSIUS
  WCI - WIND CHILL INDEX
   HX - HEAT INDEX
  VSB - VISIBILITY



USA.gov is the U.S. government's official web portal to all federal, state and local government web resources and services.